Wind_Speed
16 15 11 6 2 12 14 11 9 10 9 8 8 6 10 7 7 9 17 15 15 16 16 15 16 15 15 13 13 12 12 13 12 11 11 11 12 12 12 14 15 14 14 14 14 15 16 18 20
21 15 17 10 9 16 16 10 11 9 9 8 8 7 6 9 7 18 19 16 16 16 15 14 14 13 13 12 12 12 12 12 11 10 9 9 9 10 11 11 11 13 12 12 12 12 13 14 16
19 18 13 12 17 18 15 12 11 9 7 5 5 7 4 7 17 17 17 18 17 15 15 13 12 12 12 10 10 11 11 10 10 9 7 6 7 7 9 9 9 10 11 11 11 11 12 12 13
10 9 11 17 16 15 13 11 10 7 7 7 5 7 4 14 17 15 18 20 16 15 14 11 10 10 10 9 8 9 9 9 8 8 7 6 5 6 6 7 7 7 8 9 9 10 10 11 11
10 7 12 15 14 13 11 10 10 8 6 6 3 10 12 13 16 17 18 18 15 14 11 10 10 9 8 7 7 7 7 6 6 6 5 5 4 5 6 6 6 6 6 6 7 8 7 8 9
1 8 10 14 12 11 9 10 8 8 7 9 11 9 12 16 18 19 19 17 15 10 11 9 8 7 7 6 6 5 5 4 4 4 3 3 3 3 4 6 6 6 6 6 6 6 6 6 7
4 9 8 10 11 10 9 9 8 8 7 7 7 10 12 17 18 19 18 16 15 11 8 8 6 4 4 4 4 4 4 3 4 3 2 1 1 2 2 4 5 5 6 6 6 5 5 5 5
8 8 10 10 14 10 10 10 7 6 5 8 3 5 15 18 18 18 17 14 15 13 8 5 5 3 3 6 3 3 3 3 2 1 3 2 3 3 3 3 3 4 5 5 5 6 6 6 7
3 8 15 13 12 10 9 9 10 10 7 5 10 8 16 14 17 16 15 13 12 9 8 5 2 1 5 6 1 2 3 3 3 3 4 6 6 4 5 5 4 4 4 4 5 5 5 6 7
4 12 10 13 12 10 10 11 10 8 6 6 9 14 10 12 14 15 13 10 9 8 6 12 7 4 2 2 2 2 3 6 4 3 4 4 5 4 5 5 5 4 4 4 4 4 5 6 7
7 12 10 12 12 11 10 13 9 4 6 8 13 15 15 15 16 14 12 10 8 7 6 6 11 6 3 4 1 7 7 9 12 6 1 3 3 1 1 3 4 4 4 5 5 6 6 6 4
10 8 9 8 9 9 12 10 13 13 12 13 16 17 16 15 13 12 11 10 9 8 7 7 7 4 6 5 1 2 5 7 10 9 7 6 5 4 2 3 3 1 1 5 5 7 6 5 5
8 6 6 7 6 8 10 10 12 14 15 17 18 16 13 12 12 10 10 9 10 8 8 9 8 5 2 1 1 1 2 5 8 6 2 3 3 1 1 2 3 0 1 1 2 4 5 5 5
7 7 6 6 4 7 8 6 5 10 13 16 15 12 11 10 11 11 11 10 10 9 10 10 9 7 4 1 1 1 2 4 7 8 5 4 3 4 4 3 5 3 1 2 2 1 2 4 5
8 8 7 6 4 4 14 14 5 12 12 13 12 11 10 11 13 11 10 9 7 6 7 10 9 8 5 3 2 2 5 4 6 8 7 3 3 5 7 9 5 3 2 5 3 4 0 1 2
12 10 10 2 2 4 6 12 9 11 11 11 8 8 8 12 15 16 8 11 18 10 5 9 9 9 6 3 3 7 5 1 2 5 10 3 5 7 7 6 5 3 1 1 4 4 3 2 3
10 3 12 2 1 6 2 6 9 8 7 7 7 5 6 14 23 11 6 5 9 8 6 9 11 10 8 3 3 6 5 2 1 4 5 1 5 3 3 1 1 1 1 1 1 1 3 2 3
13 14 4 2 2 2 6 3 2 7 7 8 9 6 8 12 17 12 5 8 7 8 3 5 10 10 5 5 5 4 3 1 3 3 1 11 5 8 6 6 7 5 1 0 2 2 3 2 3
8 3 4 2 5 5 8 4 4 8 10 10 11 11 11 11 10 9 10 10 8 12 5 5 7 6 5 4 4 3 3 6 2 5 4 9 6 7 6 4 7 6 5 5 6 6 6 8 6
4 8 8 4 7 6 8 7 6 9 10 11 12 14 11 11 10 10 11 9 10 12 5 8 6 5 4 3 3 3 1 3 5 6 6 6 7 6 9 8 4 10 8 8 7 7 9 8 9
12 9 4 5 6 6 9 12 6 11 8 9 12 13 10 8 11 10 11 10 10 12 7 7 4 4 4 4 4 4 5 5 6 9 9 11 9 9 9 10 9 11 10 10 9 10 10 9 7
2 7 5 11 13 19 12 5 18 17 5 9 11 12 8 9 9 10 9 10 10 12 10 8 5 3 1 3 4 3 4 8 9 6 6 13 10 9 11 12 12 12 14 14 13 13 13 12 10
7 6 7 9 16 10 11 9 12 9 4 4 8 9 8 8 8 9 11 13 10 14 11 7 6 3 4 7 8 3 8 13 13 13 12 14 12 12 13 13 14 14 15 15 14 15 16 14 15
12 8 10 11 14 17 6 4 2 7 4 5 8 9 10 8 9 13 15 14 14 13 13 8 5 6 8 10 10 11 13 10 12 11 11 12 12 13 18 15 16 15 14 15 15 15 16 16 16
15 17 18 11 6 16 3 4 7 3 9 6 4 8 8 8 10 14 19 18 16 14 14 12 12 12 12 14 15 15 13 9 9 11 11 8 15 13 16 16 16 17 18 19 18 18 19 18 18
18 22 19 9 11 3 6 2 8 4 5 3 8 9 4 5 11 12 15 23 21 18 16 16 13 16 15 14 14 16 15 15 16 15 16 19 20 19 19 21 23 23 24 23 24 21 20 25 23
21 19 19 20 19 9 10 12 10 8 10 9 8 8 7 9 13 16 18 18 17 15 13 11 11 11 13 16 16 16 18 19 21 22 23 25 24 24 24 25 27 26 26 24 26 25 26 26 25
21 6 16 14 11 8 6 2 5 12 12 12 12 12 11 13 14 14 14 15 15 13 10 9 10 12 14 16 18 19 19 20 23 25 23 23 23 22 22 24 25 26 26 27 28 28 27 26 27
21 20 18 19 14 8 10 4 3 8 10 12 13 15 16 14 14 16 15 14 12 11 9 6 4 7 10 13 15 16 17 18 20 20 20 20 21 22 23 23 24 24 25 26 28 28 28 29 29
14 13 20 19 21 11 31 19 9 3 2 9 12 16 17 16 14 13 13 11 10 9 6 4 8 14 16 16 15 16 17 18 20 19 20 20 21 22 23 23 24 24 25 26 27 26 27 30 31
Wind_Direction
83 93 61 50 360 58 63 62 54 70 56 94 98 97 82 46 47 117 145 146 137 131 126 125 117 111 105 98 90 89 87 87 88 87 86 88 91 93 89 86 92 97 99 100 96 93 90 90 90
85 72 52 32 44 64 53 47 59 70 87 86 76 77 96 66 79 130 143 143 135 131 127 124 119 111 103 96 91 86 82 81 81 85 91 95 93 94 93 92 93 99 102 105 105 102 98 96 96
81 66 59 53 52 60 64 58 68 65 69 54 44 96 107 84 118 128 147 137 140 135 126 125 118 111 104 97 91 87 83 78 79 80 88 100 105 109 108 109 109 106 109 107 110 108 106 103 99
65 31 60 63 64 60 62 61 54 61 61 61 74 40 121 119 125 147 143 131 134 131 129 127 122 112 107 100 88 82 77 74 71 72 73 91 117 119 127 117 115 118 118 117 113 112 109 109 103
31 73 78 69 59 55 53 57 47 47 66 57 60 109 128 133 139 147 141 135 144 145 130 129 125 117 106 92 83 66 63 63 70 71 76 82 101 144 143 141 143 137 132 129 129 126 121 115 110
321 46 62 63 55 53 50 49 38 51 65 77 90 104 125 138 142 143 138 141 138 169 136 130 126 122 113 99 79 63 48 44 46 62 67 82 92 121 154 146 151 158 164 162 156 151 146 138 134
357 62 47 67 67 52 48 32 63 58 92 96 99 106 131 137 144 144 141 151 135 165 145 132 130 125 109 83 80 66 37 19 19 7 18 36 95 137 180 165 160 165 176 182 190 186 180 178 169
111 72 70 55 61 62 59 42 44 56 96 98 159 159 150 154 145 148 147 151 146 164 161 148 154 139 92 33 36 41 33 4 345 331 308 267 239 211 216 193 187 186 182 192 199 209 211 215 211
92 70 61 53 57 75 58 29 60 77 99 77 62 138 158 155 148 148 155 158 161 159 154 149 216 189 138 184 107 360 5 316 301 305 291 286 232 214 238 210 218 199 196 204 207 219 221 224 229
23 79 76 63 67 80 70 56 69 69 83 100 123 140 154 151 146 151 155 157 157 162 167 151 205 228 163 80 66 25 332 338 335 300 291 339 182 211 238 237 236 230 218 212 228 222 226 235 236
67 89 88 82 77 77 74 65 67 77 116 133 140 143 148 149 152 159 160 167 170 172 187 192 180 184 290 237 41 360 344 9 10 22 138 117 129 249 150 226 214 230 237 232 220 229 234 221 217
106 92 100 89 82 74 81 76 70 83 114 142 135 135 140 150 156 164 164 173 175 179 199 193 202 202 168 242 64 227 321 2 25 44 86 84 112 147 241 221 232 197 209 273 266 249 235 240 237
114 102 111 112 105 81 75 78 73 79 107 128 134 131 135 142 152 163 164 188 180 204 224 213 229 211 210 180 330 180 170 32 3 24 43 158 183 164 127 233 232 283 214 265 258 240 224 229 237
138 124 126 131 124 94 86 68 72 97 117 132 141 133 138 154 156 169 168 180 186 205 228 234 216 222 224 222 274 180 130 62 19 357 360 168 111 83 50 139 130 101 70 40 43 70 249 248 252
159 152 157 162 140 125 206 117 136 133 131 135 139 156 171 176 176 177 185 190 207 205 212 238 221 215 213 252 212 123 96 155 21 8 28 76 103 54 24 145 120 101 88 62 70 65 359 275 254
200 209 125 175 168 248 275 163 137 143 146 145 157 177 194 210 191 179 173 223 160 260 241 222 213 207 217 261 176 121 149 189 73 24 31 41 15 35 42 115 86 117 344 360 71 62 41 360 348
208 117 264 117 330 292 324 119 158 156 161 175 183 221 226 237 282 138 174 201 266 274 248 220 203 207 208 204 193 148 193 93 64 339 313 55 332 18 46 42 360 344 142 132 279 42 8 25 8
300 167 160 341 191 296 276 293 199 193 191 220 208 236 228 263 302 140 216 227 218 262 214 197 175 174 206 187 204 158 154 74 334 287 210 304 22 315 337 354 327 305 331 213 258 299 331 282 333
274 24 290 254 274 262 259 266 250 218 215 224 218 236 229 224 237 238 222 217 221 262 236 171 146 164 194 219 208 200 161 171 251 197 246 285 306 303 308 257 306 308 316 282 284 289 301 294 297
241 247 231 232 237 231 220 238 227 213 217 229 239 229 228 237 241 262 242 223 211 244 253 166 141 150 180 212 231 245 197 195 234 276 283 297 302 309 299 293 266 294 305 301 300 297 281 281 294
238 266 12 269 257 251 272 227 246 213 197 213 223 228 237 234 226 241 236 220 195 222 222 191 183 180 196 209 222 252 266 258 273 291 299 301 298 292 293 292 292 294 300 304 303 298 299 308 244
94 281 261 265 269 129 249 189 219 185 169 204 220 220 227 230 234 213 212 215 198 207 227 229 221 248 292 239 238 276 280 278 246 233 287 260 288 287 281 279 282 285 293 296 298 290 290 294 290
277 278 261 256 273 305 226 277 157 157 164 220 206 208 204 208 204 198 194 222 197 209 212 219 220 226 258 279 265 282 326 280 265 270 280 279 286 295 294 285 287 286 290 293 290 289 289 283 286
253 256 243 240 249 261 178 19 180 143 19 204 217 194 194 200 207 206 197 207 207 202 208 227 242 245 261 274 276 265 317 308 272 279 284 286 304 302 302 302 295 290 293 292 289 288 287 284 282
222 235 232 284 233 288 121 322 88 69 342 319 255 191 206 261 198 221 197 193 204 206 222 245 257 261 273 279 276 280 284 293 290 294 283 289 299 286 289 307 306 303 293 287 282 281 280 280 279
217 241 264 215 291 81 219 231 122 143 360 24 165 189 232 215 179 187 189 205 214 219 226 240 243 255 263 277 283 273 274 275 274 284 292 288 288 287 285 288 292 293 288 283 283 281 282 282 279
235 231 264 298 279 243 250 125 130 153 152 158 169 186 197 202 172 199 205 215 221 225 235 238 242 256 265 280 283 280 275 272 277 284 288 287 282 283 286 290 292 292 290 289 287 283 281 283 280
241 264 237 226 257 280 297 114 112 170 166 165 180 173 174 175 182 181 180 182 188 201 221 240 246 262 274 277 281 281 278 277 277 281 283 284 286 288 290 289 287 286 287 285 284 284 284 279 276
214 240 250 272 262 280 251 164 241 200 193 169 176 179 173 189 183 187 191 195 200 209 216 230 263 291 291 287 280 279 281 280 279 282 285 288 290 293 293 292 292 288 287 286 284 282 282 281 278
232 239 231 229 237 11 310 132 144 92 223 189 184 184 183 200 208 211 204 206 200 188 198 263 312 311 306 292 281 278 280 283 287 289 290 290 291 292 294 296 296 295 294 292 290 287 282 279 280
Height
3175 3174 3171 3170 3173 3172 3172 3175 3174 3174 3175 3175 3176 3174 3176 3174 3176 3180 3178 3179 3180 3181 3182 3184 3184 3185 3186 3187 3187 3187 3187 3186 3187 3187 3188 3188 3188 3188 3189 3189 3190 3190 3190 3191 3192 3192 3193 3193 3193
3176 3176 3173 3171 3175 3174 3177 3177 3177 3177 3178 3177 3177 3178 3176 3177 3176 3176 3179 3181 3182 3183 3184 3185 3186 3187 3188 3188 3188 3189 3189 3189 3189 3189 3189 3189 3189 3190 3190 3192 3193 3193 3193 3194 3195 3195 3197 3197 3198
3179 3178 3176 3180 3178 3179 3181 3181 3181 3181 3180 3179 3178 3178 3179 3179 3180 3180 3180 3182 3185 3185 3186 3187 3188 3188 3189 3190 3190 3190 3190 3190 3190 3191 3191 3191 3191 3192 3193 3193 3194 3195 3195 3196 3197 3198 3199 3199 3200
3179 3181 3182 3183 3183 3184 3184 3184 3184 3182 3182 3182 3181 3178 3178 3181 3183 3182 3183 3187 3189 3189 3188 3189 3190 3190 3191 3191 3192 3192 3192 3192 3192 3192 3192 3193 3193 3193 3194 3195 3196 3197 3197 3198 3199 3200 3201 3201 3202
3181 3184 3184 3185 3187 3187 3187 3186 3185 3184 3184 3183 3182 3181 3179 3181 3184 3183 3185 3191 3192 3193 3190 3191 3192 3192 3192 3192 3193 3193 3193 3194 3194 3194 3194 3195 3195 3195 3196 3196 3197 3198 3199 3199 3200 3201 3202 3203 3204
3185 3187 3186 3186 3189 3188 3189 3187 3186 3186 3185 3185 3185 3183 3181 3182 3184 3186 3189 3194 3194 3195 3191 3192 3193 3193 3194 3194 3194 3195 3195 3195 3196 3195 3195 3196 3197 3197 3197 3198 3198 3199 3200 3201 3202 3203 3203 3204 3205
3189 3189 3188 3188 3189 3191 3190 3189 3188 3187 3187 3187 3187 3185 3185 3185 3186 3188 3192 3194 3195 3197 3192 3193 3194 3194 3195 3195 3195 3196 3196 3196 3196 3196 3197 3197 3197 3198 3198 3199 3199 3200 3201 3201 3202 3203 3204 3205 3206
3190 3189 3189 3189 3189 3193 3192 3190 3189 3188 3187 3188 3187 3186 3187 3186 3188 3190 3194 3195 3196 3197 3194 3194 3194 3195 3196 3196 3196 3196 3197 3197 3196 3196 3197 3197 3197 3198 3199 3199 3200 3201 3201 3202 3202 3204 3205 3205 3206
3190 3191 3190 3191 3192 3194 3193 3191 3189 3189 3189 3188 3189 3187 3187 3187 3189 3192 3194 3195 3195 3195 3196 3201 3199 3197 3197 3197 3197 3197 3197 3196 3196 3196 3196 3197 3197 3198 3198 3200 3200 3201 3201 3202 3203 3204 3204 3205 3206
3192 3191 3195 3194 3194 3194 3193 3192 3190 3191 3190 3189 3188 3188 3187 3189 3191 3194 3195 3195 3196 3196 3197 3201 3202 3200 3198 3201 3199 3198 3197 3195 3195 3196 3196 3196 3196 3198 3199 3199 3200 3201 3202 3202 3203 3204 3204 3205 3206
3195 3196 3196 3195 3196 3195 3194 3193 3191 3190 3190 3189 3188 3187 3188 3190 3193 3196 3198 3198 3198 3198 3198 3198 3199 3200 3202 3199 3199 3198 3197 3197 3196 3195 3195 3196 3198 3199 3199 3199 3200 3201 3202 3203 3203 3203 3204 3205 3204
3196 3198 3197 3198 3197 3197 3196 3195 3191 3188 3189 3189 3189 3190 3191 3193 3197 3199 3200 3201 3202 3201 3201 3199 3198 3199 3200 3201 3200 3202 3200 3200 3198 3197 3197 3198 3200 3200 3200 3199 3200 3201 3202 3202 3202 3203 3203 3204 3205
3196 3198 3198 3199 3198 3199 3200 3199 3198 3194 3190 3191 3192 3194 3196 3198 3198 3200 3202 3202 3203 3202 3200 3199 3199 3199 3200 3200 3200 3201 3201 3200 3200 3199 3199 3199 3199 3200 3200 3200 3201 3202 3201 3202 3202 3202 3203 3204 3205
3197 3197 3198 3198 3199 3201 3201 3200 3197 3198 3195 3194 3195 3197 3198 3199 3200 3200 3201 3201 3201 3201 3200 3200 3199 3199 3200 3200 3200 3200 3200 3202 3202 3202 3201 3200 3200 3201 3200 3201 3201 3202 3203 3202 3202 3203 3203 3204 3204
3197 3197 3195 3195 3196 3201 3190 3191 3198 3196 3198 3196 3197 3198 3199 3198 3197 3197 3198 3199 3199 3200 3198 3199 3199 3199 3200 3200 3200 3201 3202 3200 3203 3203 3202 3201 3202 3201 3201 3201 3202 3203 3204 3204 3204 3204 3204 3204 3204
3194 3192 3193 3197 3194 3198 3200 3174 3206 3198 3198 3198 3199 3200 3200 3197 3192 3189 3194 3196 3186 3194 3196 3197 3198 3199 3200 3200 3200 3200 3201 3203 3204 3201 3203 3201 3203 3204 3203 3203 3203 3204 3204 3204 3204 3204 3204 3204 3204
3190 3194 3192 3192 3192 3196 3199 3191 3200 3198 3198 3199 3199 3200 3202 3182 3160 3188 3193 3199 3195 3197 3196 3195 3196 3199 3200 3201 3201 3201 3202 3203 3204 3202 3202 3201 3202 3204 3203 3204 3204 3204 3204 3204 3203 3203 3203 3203 3203
3185 3187 3189 3191 3194 3194 3193 3194 3195 3196 3198 3198 3199 3200 3201 3194 3182 3179 3197 3198 3197 3196 3196 3196 3196 3198 3200 3201 3201 3201 3203 3204 3205 3204 3206 3202 3204 3202 3203 3202 3203 3203 3203 3204 3204 3203 3204 3203 3203
3191 3189 3190 3190 3192 3193 3191 3191 3192 3195 3197 3198 3198 3198 3199 3199 3197 3195 3196 3199 3200 3198 3197 3197 3198 3200 3201 3201 3202 3202 3203 3203 3205 3204 3204 3205 3204 3203 3203 3203 3203 3203 3202 3203 3204 3204 3204 3204 3203
3191 3189 3187 3190 3190 3191 3189 3191 3193 3193 3194 3196 3196 3196 3195 3195 3196 3194 3195 3197 3201 3200 3197 3197 3198 3199 3201 3201 3202 3203 3203 3203 3203 3204 3204 3203 3203 3202 3202 3202 3203 3202 3202 3202 3202 3202 3202 3202 3202
3188 3186 3187 3188 3189 3193 3193 3190 3194 3191 3189 3193 3195 3194 3193 3194 3193 3194 3194 3196 3200 3201 3198 3198 3198 3199 3200 3200 3201 3203 3203 3203 3203 3203 3203 3202 3201 3201 3201 3201 3202 3202 3201 3201 3201 3201 3200 3200 3201
3189 3191 3189 3188 3188 3188 3185 3182 3178 3182 3183 3189 3192 3190 3191 3193 3191 3193 3195 3196 3200 3200 3198 3198 3199 3199 3200 3201 3201 3201 3201 3202 3202 3203 3202 3202 3200 3199 3199 3199 3199 3199 3199 3199 3198 3198 3198 3198 3199
3188 3190 3188 3187 3183 3182 3178 3175 3178 3181 3185 3189 3190 3190 3192 3192 3192 3192 3195 3195 3200 3198 3197 3198 3198 3199 3200 3200 3200 3201 3202 3200 3200 3200 3199 3200 3199 3198 3197 3196 3196 3197 3197 3196 3196 3196 3196 3196 3196
3189 3189 3187 3184 3178 3172 3175 3176 3175 3183 3184 3186 3186 3187 3189 3189 3189 3190 3191 3193 3195 3196 3197 3198 3198 3198 3199 3199 3199 3200 3199 3197 3198 3198 3198 3197 3196 3196 3194 3194 3194 3194 3194 3193 3193 3193 3193 3193 3193
3189 3185 3179 3182 3176 3172 3171 3175 3176 3180 3181 3183 3182 3184 3186 3186 3187 3188 3189 3192 3194 3195 3197 3196 3196 3197 3197 3197 3197 3198 3198 3197 3197 3196 3196 3196 3196 3194 3193 3192 3192 3191 3190 3190 3189 3190 3189 3188 3188
3184 3181 3175 3185 3167 3168 3171 3170 3175 3178 3179 3180 3182 3183 3184 3184 3185 3187 3188 3190 3193 3194 3195 3193 3193 3195 3195 3195 3195 3195 3195 3195 3194 3194 3194 3192 3191 3190 3189 3188 3187 3186 3186 3185 3185 3185 3184 3183 3182
3178 3180 3176 3170 3164 3162 3162 3167 3172 3174 3176 3179 3181 3181 3182 3183 3185 3184 3185 3187 3190 3191 3192 3193 3194 3193 3193 3192 3192 3192 3191 3191 3190 3189 3189 3187 3186 3185 3184 3182 3180 3180 3179 3178 3177 3178 3178 3177 3177
3175 3177 3174 3172 3167 3162 3158 3163 3159 3175 3175 3175 3178 3180 3181 3182 3183 3183 3184 3186 3188 3190 3191 3192 3192 3192 3191 3190 3188 3187 3187 3187 3186 3184 3183 3182 3180 3180 3178 3177 3176 3174 3173 3171 3171 3171 3171 3171 3171
3175 3176 3175 3169 3170 3158 3155 3171 3176 3177 3176 3175 3178 3180 3180 3181 3182 3183 3184 3186 3187 3189 3190 3191 3190 3190 3189 3187 3186 3184 3184 3183 3181 3180 3179 3178 3176 3174 3172 3171 3170 3168 3167 3165 3164 3164 3164 3164 3164
3168 3167 3167 3166 3165 3167 3167 3170 3174 3174 3174 3175 3178 3180 3182 3180 3182 3183 3184 3186 3186 3187 3188 3188 3188 3187 3185 3184 3183 3181 3180 3179 3177 3175 3174 3173 3172 3170 3167 3165 3164 3162 3160 3159 3158 3157 3157 3156 3156